NKS1403 KATL-KFLL

Flight info

Callsign NKS1403
Flight time N/A
Altitude 39000
Route SMLTZ3 WALET ZPLEN TEEKY4
Aircraft A20N/M-SDE2E3FGHIRWXY/LB1

Departure

Time 2026-05-03 23:08
Airport Hartsfield Jackson Atlanta International Airport (KATL)

Arrival

Time N/A
Airport Fort Lauderdale Hollywood International Airport (KFLL)
Time Latitude Longitude Altitude Speed Heading
2026-05-03 22:39 33.63787 -84.42981 1035 ft 0 kts 91°
2026-05-03 22:57 33.63787 -84.42991 1035 ft 3 kts 91°
2026-05-03 22:57 33.63788 -84.43015 1035 ft 3 kts 91°
2026-05-03 22:57 33.63788 -84.43035 1035 ft 3 kts 103°
2026-05-03 22:57 33.63795 -84.43056 1035 ft 3 kts 143°
2026-05-03 22:58 33.63813 -84.43065 1035 ft 3 kts 175°
2026-05-03 22:58 33.63826 -84.43066 1035 ft 1 kts 181°
2026-05-03 22:58 33.63830 -84.43066 1035 ft 0 kts 181°
2026-05-03 23:02 33.63828 -84.43066 1035 ft 1 kts 181°
2026-05-03 23:02 33.63804 -84.43066 1035 ft 6 kts 181°
2026-05-03 23:02 33.63751 -84.43066 1035 ft 10 kts 180°
2026-05-03 23:03 33.63677 -84.43046 1035 ft 13 kts 133°
2026-05-03 23:03 33.63665 -84.42932 1035 ft 16 kts 90°
2026-05-03 23:03 33.63664 -84.42785 1035 ft 19 kts 94°
2026-05-03 23:03 33.63656 -84.42620 1035 ft 19 kts 89°
2026-05-03 23:04 33.63656 -84.42450 1035 ft 22 kts 90°
2026-05-03 23:04 33.63656 -84.42255 1035 ft 25 kts 90°
2026-05-03 23:04 33.63656 -84.42035 1035 ft 28 kts 90°
2026-05-03 23:04 33.63656 -84.41794 1035 ft 30 kts 90°
2026-05-03 23:05 33.63656 -84.41553 1035 ft 27 kts 90°
2026-05-03 23:05 33.63656 -84.41317 1035 ft 29 kts 91°
2026-05-03 23:05 33.63656 -84.41087 1035 ft 17 kts 90°
2026-05-03 23:05 33.63654 -84.40947 1035 ft 14 kts 104°
2026-05-03 23:06 33.63571 -84.40913 1035 ft 15 kts 180°
2026-05-03 23:06 33.63478 -84.40942 1036 ft 14 kts 231°
2026-05-03 23:06 33.63471 -84.40992 1035 ft 1 kts 264°
2026-05-03 23:06 33.63472 -84.41066 1035 ft 33 kts 269°
2026-05-03 23:07 33.63472 -84.41630 1034 ft 98 kts 270°
2026-05-03 23:07 33.63472 -84.42657 1041 ft 146 kts 271°
2026-05-03 23:07 33.63458 -84.43992 1257 ft 173 kts 270°
2026-05-03 23:07 33.63443 -84.45566 1495 ft 206 kts 272°
2026-05-03 23:08 33.63474 -84.47390 2110 ft 230 kts 274°
2026-05-03 23:08 33.63419 -84.49410 2770 ft 255 kts 270°
2026-05-03 23:08 33.63313 -84.51608 3483 ft 275 kts 271°
2026-05-03 23:08 33.63226 -84.53988 4270 ft 292 kts 271°
2026-05-03 23:09 33.63235 -84.56505 4903 ft 314 kts 275°
2026-05-03 23:09 33.63300 -84.59250 5119 ft 346 kts 274°
2026-05-03 23:09 33.63191 -84.62279 5257 ft 376 kts 260°
2026-05-03 23:09 33.62103 -84.65143 6100 ft 382 kts 236°
2026-05-03 23:10 33.60188 -84.67301 7206 ft 376 kts 221°
2026-05-03 23:10 33.58855 -84.68592 7919 ft 369 kts 220°
2026-05-03 23:10 33.55687 -84.69955 9391 ft 369 kts 182°
2026-05-03 23:10 33.53212 -84.69228 10407 ft 368 kts 157°
2026-05-03 23:11 33.51020 -84.67681 11333 ft 368 kts 154°
2026-05-03 23:11 33.48576 -84.66617 11662 ft 383 kts 174°
2026-05-03 23:11 33.45881 -84.66568 11897 ft 396 kts 192°
2026-05-03 23:11 33.43117 -84.67144 12286 ft 412 kts 187°
2026-05-03 23:12 33.40220 -84.66902 12938 ft 427 kts 171°
2026-05-03 23:12 33.37463 -84.65460 13662 ft 442 kts 151°
2026-05-03 23:12 33.35001 -84.63186 14158 ft 453 kts 139°
2026-05-03 23:12 33.32869 -84.60516 14687 ft 460 kts 136°
2026-05-03 23:13 33.30643 -84.57642 15286 ft 466 kts 136°
2026-05-03 23:13 33.28412 -84.54726 15869 ft 472 kts 136°
2026-05-03 23:13 33.26191 -84.51804 16452 ft 477 kts 137°
2026-05-03 23:13 33.23947 -84.48843 17006 ft 483 kts 137°
2026-05-03 23:14 33.21678 -84.45851 17573 ft 489 kts 138°
2026-05-03 23:14 33.19415 -84.42870 18116 ft 494 kts 138°
2026-05-03 23:14 33.17095 -84.39816 18656 ft 498 kts 139°
2026-05-03 23:14 33.14756 -84.36743 19190 ft 501 kts 139°
2026-05-03 23:15 33.12407 -84.33659 19704 ft 505 kts 139°
2026-05-03 23:15 33.10035 -84.30550 20200 ft 508 kts 139°
2026-05-03 23:15 33.07648 -84.27425 20711 ft 511 kts 139°
2026-05-03 23:15 33.05244 -84.24282 21224 ft 514 kts 140°
2026-05-03 23:16 33.02797 -84.21156 21690 ft 514 kts 143°
2026-05-03 23:16 33.00079 -84.18454 22153 ft 505 kts 153°
2026-05-03 23:16 32.98085 -84.16947 22473 ft 499 kts 160°
2026-05-03 23:16 32.93934 -84.14771 23083 ft 488 kts 170°
2026-05-03 23:17 32.90713 -84.13459 23547 ft 490 kts 170°
2026-05-03 23:17 32.88546 -84.12570 24069 ft 484 kts 171°
2026-05-03 23:17 32.85462 -84.11293 25231 ft 466 kts 171°
2026-05-03 23:17 32.82465 -84.10048 26535 ft 447 kts 171°
2026-05-03 23:18 32.79551 -84.08839 27788 ft 431 kts 172°
2026-05-03 23:18 32.76749 -84.07695 28330 ft 433 kts 172°
2026-05-03 23:18 32.73885 -84.06538 28697 ft 438 kts 172°
2026-05-03 23:18 32.70991 -84.05365 29115 ft 440 kts 172°
2026-05-03 23:19 32.68086 -84.04181 29546 ft 443 kts 172°
2026-05-03 23:19 32.65168 -84.02987 29960 ft 445 kts 172°
2026-05-03 23:19 32.62235 -84.01786 30343 ft 447 kts 172°
2026-05-03 23:19 32.59281 -84.00578 30719 ft 450 kts 172°
2026-05-03 23:20 32.56317 -83.99366 31088 ft 452 kts 172°
2026-05-03 23:20 32.53337 -83.98147 31497 ft 453 kts 172°
2026-05-03 23:20 32.50362 -83.96930 31968 ft 452 kts 172°
2026-05-03 23:20 32.47399 -83.95719 32459 ft 450 kts 172°
2026-05-03 23:21 32.44437 -83.94509 32925 ft 449 kts 172°
2026-05-03 23:21 32.41490 -83.93308 33380 ft 448 kts 172°
2026-05-03 23:21 32.38549 -83.92111 33825 ft 447 kts 172°
2026-05-03 23:21 32.35611 -83.90919 34244 ft 445 kts 173°
2026-05-03 23:22 32.29732 -83.88786 34923 ft 440 kts 175°
2026-05-03 23:22 32.26798 -83.87763 35258 ft 440 kts 175°
2026-05-03 23:22 32.23861 -83.86731 35584 ft 440 kts 175°
2026-05-03 23:23 32.20935 -83.85693 35894 ft 439 kts 175°
2026-05-03 23:23 32.18009 -83.84649 36206 ft 439 kts 175°
2026-05-03 23:23 32.15086 -83.83604 36500 ft 439 kts 175°
2026-05-03 23:23 32.12167 -83.82560 36802 ft 438 kts 175°
2026-05-03 23:24 32.09253 -83.81518 37093 ft 438 kts 175°
2026-05-03 23:24 32.06341 -83.80478 37372 ft 437 kts 175°
2026-05-03 23:24 32.03430 -83.79439 37657 ft 437 kts 176°
2026-05-03 23:24 32.00524 -83.78402 37919 ft 436 kts 176°
2026-05-03 23:25 31.97621 -83.77368 38174 ft 436 kts 176°
2026-05-03 23:25 31.94720 -83.76334 38436 ft 436 kts 176°
2026-05-03 23:25 31.91818 -83.75301 38674 ft 435 kts 176°
2026-05-03 23:25 31.88916 -83.74270 38881 ft 435 kts 176°
2026-05-03 23:26 31.86059 -83.73254 39048 ft 435 kts 176°
2026-05-03 23:26 31.83154 -83.72223 39110 ft 436 kts 176°
2026-05-03 23:26 31.77359 -83.70166 39112 ft 435 kts 176°
2026-05-03 23:27 31.71571 -83.68115 39117 ft 434 kts 176°
2026-05-03 23:27 31.65781 -83.66019 39113 ft 437 kts 175°
2026-05-03 23:28 31.59998 -83.63769 39111 ft 438 kts 175°
2026-05-03 23:28 31.54213 -83.61528 39113 ft 438 kts 175°
2026-05-03 23:29 31.48427 -83.59308 39115 ft 438 kts 175°
2026-05-03 23:29 31.42640 -83.57094 39112 ft 438 kts 175°
2026-05-03 23:30 31.36851 -83.54883 39110 ft 438 kts 175°
2026-05-03 23:30 31.31060 -83.52674 39114 ft 438 kts 175°
2026-05-03 23:31 31.25270 -83.50467 39110 ft 438 kts 175°
2026-05-03 23:31 31.19479 -83.48263 39113 ft 438 kts 175°
2026-05-03 23:32 31.13679 -83.46058 39106 ft 438 kts 175°
2026-05-03 23:32 31.07878 -83.43856 39104 ft 438 kts 175°
2026-05-03 23:33 31.02078 -83.41657 39104 ft 438 kts 175°
2026-05-03 23:33 30.96274 -83.39459 39100 ft 439 kts 175°
2026-05-03 23:34 30.90470 -83.37264 39114 ft 439 kts 175°
2026-05-03 23:34 30.84666 -83.35072 39107 ft 438 kts 175°
2026-05-03 23:35 30.78863 -83.32883 39229 ft 438 kts 175°
2026-05-03 23:35 30.75959 -83.31792 39118 ft 437 kts 175°
2026-05-03 23:35 30.73115 -83.30718 39110 ft 434 kts 175°
2026-05-03 23:36 30.67436 -83.28025 39108 ft 447 kts 168°
2026-05-03 23:36 30.61794 -83.24963 39116 ft 447 kts 168°
2026-05-03 23:37 30.56163 -83.21923 39116 ft 446 kts 168°
2026-05-03 23:37 30.50523 -83.18892 39118 ft 446 kts 168°
2026-05-03 23:38 30.44889 -83.15867 39119 ft 446 kts 168°
2026-05-03 23:38 30.39253 -83.12846 39116 ft 446 kts 168°
2026-05-03 23:39 30.33627 -83.09831 39124 ft 446 kts 169°
2026-05-03 23:39 30.28000 -83.06821 39118 ft 445 kts 169°
2026-05-03 23:40 30.22379 -83.03819 39118 ft 445 kts 169°
2026-05-03 23:40 30.16766 -83.00824 39114 ft 444 kts 169°
2026-05-03 23:41 30.11155 -82.97834 39110 ft 444 kts 169°
2026-05-03 23:41 30.05551 -82.94852 39103 ft 443 kts 169°
2026-05-03 23:42 29.99955 -82.91877 39103 ft 442 kts 169°
2026-05-03 23:42 29.94365 -82.88910 39096 ft 442 kts 169°
2026-05-03 23:43 29.88785 -82.85952 39088 ft 441 kts 169°
2026-05-03 23:43 29.83204 -82.82997 39085 ft 441 kts 170°
2026-05-03 23:44 29.77630 -82.80049 39083 ft 441 kts 170°
2026-05-03 23:44 29.72061 -82.77108 39087 ft 440 kts 170°
2026-05-03 23:45 29.66494 -82.74171 39079 ft 440 kts 170°
2026-05-03 23:45 29.60969 -82.71261 39080 ft 440 kts 170°
2026-05-03 23:46 29.55405 -82.68333 39083 ft 440 kts 170°
2026-05-03 23:46 29.49844 -82.65410 39082 ft 440 kts 170°
2026-05-03 23:47 29.44241 -82.62469 39082 ft 440 kts 170°
2026-05-03 23:47 29.38719 -82.59574 39081 ft 440 kts 170°
2026-05-03 23:48 29.33157 -82.56662 39084 ft 439 kts 170°
2026-05-03 23:48 29.27556 -82.54129 39084 ft 422 kts 179°
2026-05-03 23:49 29.21938 -82.52870 39082 ft 402 kts 188°
2026-05-03 23:49 29.16448 -82.52702 39082 ft 392 kts 194°
2026-05-03 23:50 29.11917 -82.52716 39082 ft 392 kts 194°
2026-05-03 23:50 29.05542 -82.52713 39083 ft 392 kts 194°
2026-05-03 23:51 29.00092 -82.52709 39081 ft 391 kts 194°
2026-05-03 23:51 28.94648 -82.52706 39085 ft 391 kts 194°
2026-05-03 23:52 28.89202 -82.52703 39083 ft 391 kts 194°
2026-05-03 23:52 28.83761 -82.52700 39083 ft 391 kts 194°
2026-05-03 23:53 28.78320 -82.52698 39082 ft 391 kts 194°
2026-05-03 23:53 28.72918 -82.52695 39078 ft 391 kts 194°
2026-05-03 23:54 28.67479 -82.52692 39075 ft 391 kts 194°
2026-05-03 23:54 28.62042 -82.52689 39059 ft 391 kts 194°
2026-05-03 23:55 28.56609 -82.52686 39059 ft 390 kts 194°
2026-05-03 23:55 28.51176 -82.52684 39051 ft 390 kts 194°
2026-05-03 23:56 28.45743 -82.52681 39047 ft 390 kts 194°
2026-05-03 23:56 28.40308 -82.52679 39051 ft 391 kts 194°
2026-05-03 23:57 28.34872 -82.52676 39045 ft 391 kts 194°
2026-05-03 23:57 28.29431 -82.52674 39046 ft 391 kts 194°
2026-05-03 23:58 28.23981 -82.52671 39047 ft 392 kts 194°
2026-05-03 23:58 28.18521 -82.52669 39045 ft 393 kts 194°
2026-05-03 23:59 28.13046 -82.52667 39041 ft 394 kts 194°
2026-05-03 23:59 28.07562 -82.52665 39042 ft 395 kts 194°
2026-05-04 00:00 28.02020 -82.52470 39046 ft 406 kts 189°
2026-05-04 00:00 27.96346 -82.51361 39060 ft 423 kts 180°
2026-05-04 00:01 27.90628 -82.49382 39051 ft 432 kts 177°
2026-05-04 00:01 27.84893 -82.47327 39051 ft 432 kts 177°
2026-05-04 00:02 27.79155 -82.45290 39047 ft 433 kts 177°
2026-05-04 00:02 27.73400 -82.43253 39055 ft 433 kts 177°
2026-05-04 00:03 27.67684 -82.41232 39057 ft 434 kts 177°
2026-05-04 00:03 27.61925 -82.39196 39044 ft 432 kts 177°
2026-05-04 00:04 27.56183 -82.37170 39048 ft 433 kts 177°
2026-05-04 00:04 27.51364 -82.35474 39049 ft 433 kts 177°
2026-05-04 00:05 27.44671 -82.33118 39051 ft 434 kts 177°
2026-05-04 00:05 27.39845 -82.31378 39049 ft 439 kts 174°
2026-05-04 00:06 27.34173 -82.28459 39053 ft 458 kts 164°
2026-05-04 00:06 27.28622 -82.24896 39052 ft 460 kts 164°
2026-05-04 00:07 27.23061 -82.21355 39001 ft 460 kts 164°
2026-05-04 00:07 27.20280 -82.19590 38658 ft 458 kts 164°
2026-05-04 00:07 27.17504 -82.17830 37639 ft 459 kts 163°
2026-05-04 00:08 27.14697 -82.16061 36359 ft 466 kts 163°
2026-05-04 00:08 27.11853 -82.14270 35502 ft 469 kts 162°
2026-05-04 00:08 27.09019 -82.12475 34870 ft 467 kts 162°
2026-05-04 00:08 27.06179 -82.10679 34077 ft 469 kts 162°
2026-05-04 00:09 27.03330 -82.08880 33174 ft 470 kts 162°
2026-05-04 00:09 27.00485 -82.07083 32395 ft 469 kts 161°
2026-05-04 00:09 26.97675 -82.05163 31477 ft 480 kts 155°
2026-05-04 00:09 26.95015 -82.02854 30596 ft 491 kts 148°
2026-05-04 00:10 26.92562 -82.00143 29894 ft 496 kts 141°
2026-05-04 00:10 26.90229 -81.97347 29422 ft 486 kts 142°
2026-05-04 00:10 26.87926 -81.94607 29117 ft 482 kts 142°
2026-05-04 00:10 26.86328 -81.92721 28783 ft 485 kts 142°
2026-05-04 00:11 26.84132 -81.90133 28276 ft 483 kts 142°
2026-05-04 00:11 26.81833 -81.87420 27746 ft 477 kts 142°
2026-05-04 00:11 26.79573 -81.84750 27339 ft 467 kts 142°
2026-05-04 00:11 26.77363 -81.82140 26834 ft 459 kts 142°
2026-05-04 00:12 26.75173 -81.79570 26218 ft 453 kts 142°
2026-05-04 00:12 26.73007 -81.77050 25696 ft 446 kts 142°
2026-05-04 00:12 26.70869 -81.74569 25212 ft 440 kts 142°
2026-05-04 00:12 26.68755 -81.72118 24720 ft 435 kts 142°
2026-05-04 00:13 26.66666 -81.69695 24232 ft 432 kts 142°
2026-05-04 00:13 26.64591 -81.67289 23785 ft 429 kts 142°
2026-05-04 00:13 26.62584 -81.64807 23176 ft 432 kts 136°
2026-05-04 00:13 26.60792 -81.62134 22789 ft 426 kts 134°
2026-05-04 00:14 26.59022 -81.59488 22335 ft 426 kts 134°
2026-05-04 00:14 26.57243 -81.56845 21863 ft 424 kts 134°
2026-05-04 00:14 26.55504 -81.54261 21405 ft 419 kts 134°
2026-05-04 00:14 26.53741 -81.51642 20937 ft 414 kts 134°
2026-05-04 00:15 26.52033 -81.49109 20479 ft 413 kts 134°
2026-05-04 00:15 26.50313 -81.46558 20026 ft 409 kts 134°
2026-05-04 00:15 26.48612 -81.44035 19574 ft 404 kts 134°
2026-05-04 00:15 26.46923 -81.41533 19128 ft 403 kts 134°
2026-05-04 00:16 26.45221 -81.39014 18656 ft 400 kts 133°
2026-05-04 00:16 26.43580 -81.36584 18197 ft 396 kts 133°
2026-05-04 00:16 26.41906 -81.34108 17766 ft 392 kts 133°
2026-05-04 00:16 26.40273 -81.31723 17342 ft 391 kts 134°
2026-05-04 00:17 26.38557 -81.29397 16897 ft 386 kts 136°
2026-05-04 00:17 26.36826 -81.27125 16466 ft 383 kts 136°
2026-05-04 00:17 26.35105 -81.24870 16044 ft 381 kts 136°
2026-05-04 00:17 26.33401 -81.22620 15628 ft 379 kts 135°
2026-05-04 00:18 26.31713 -81.20379 15213 ft 376 kts 135°
2026-05-04 00:18 26.30041 -81.18150 14795 ft 374 kts 135°
2026-05-04 00:18 26.28378 -81.15932 14389 ft 371 kts 135°
2026-05-04 00:18 26.26721 -81.13740 13986 ft 368 kts 135°
2026-05-04 00:19 26.25073 -81.11574 13552 ft 365 kts 135°
2026-05-04 00:19 26.23441 -81.09430 13280 ft 358 kts 135°
2026-05-04 00:19 26.21861 -81.07349 13149 ft 345 kts 135°
2026-05-04 00:19 26.20343 -81.05347 12890 ft 332 kts 135°
2026-05-04 00:20 26.18864 -81.03402 12307 ft 327 kts 135°
2026-05-04 00:20 26.17401 -81.01483 11694 ft 324 kts 134°
2026-05-04 00:20 26.15968 -80.99597 11305 ft 314 kts 133°
2026-05-04 00:20 26.14816 -80.97507 10969 ft 323 kts 116°
2026-05-04 00:21 26.14199 -80.95093 10603 ft 324 kts 102°
2026-05-04 00:21 26.13804 -80.92630 10050 ft 322 kts 102°
2026-05-04 00:21 26.13410 -80.90186 9469 ft 319 kts 102°
2026-05-04 00:21 26.13016 -80.87768 8870 ft 315 kts 102°
2026-05-04 00:22 26.12623 -80.85382 8300 ft 312 kts 102°
2026-05-04 00:22 26.12233 -80.83033 7791 ft 306 kts 102°
2026-05-04 00:22 26.11849 -80.80722 7307 ft 301 kts 102°
2026-05-04 00:22 26.11472 -80.78461 7072 ft 299 kts 102°
2026-05-04 00:23 26.11088 -80.76175 6835 ft 301 kts 102°
2026-05-04 00:23 26.10706 -80.73903 6597 ft 296 kts 102°
2026-05-04 00:23 26.10328 -80.71654 6423 ft 296 kts 102°
2026-05-04 00:23 26.09950 -80.69405 6265 ft 296 kts 102°
2026-05-04 00:24 26.09570 -80.67154 6084 ft 294 kts 102°
2026-05-04 00:24 26.09196 -80.64934 5921 ft 292 kts 102°
2026-05-04 00:24 26.08822 -80.62716 5756 ft 291 kts 102°
2026-05-04 00:24 26.08449 -80.60511 5591 ft 289 kts 101°
2026-05-04 00:25 26.08078 -80.58316 5427 ft 288 kts 101°
2026-05-04 00:25 26.07708 -80.56131 5266 ft 287 kts 101°
2026-05-04 00:25 26.07340 -80.53952 5104 ft 286 kts 101°
2026-05-04 00:25 26.06974 -80.51793 5009 ft 282 kts 102°
2026-05-04 00:26 26.06734 -80.49905 4959 ft 271 kts 93°
2026-05-04 00:26 26.06730 -80.47866 4833 ft 256 kts 89°
2026-05-04 00:26 26.06771 -80.45955 4704 ft 239 kts 90°
2026-05-04 00:27 26.06768 -80.44170 4570 ft 223 kts 91°
2026-05-04 00:27 26.06758 -80.42500 4441 ft 209 kts 91°
2026-05-04 00:27 26.06748 -80.40906 4270 ft 208 kts 91°
2026-05-04 00:27 26.06738 -80.39327 4012 ft 205 kts 91°
2026-05-04 00:28 26.06728 -80.37764 3769 ft 199 kts 91°
2026-05-04 00:28 26.06719 -80.36279 3549 ft 186 kts 91°
2026-05-04 00:28 26.06710 -80.34909 3313 ft 170 kts 91°
2026-05-04 00:28 26.06702 -80.33636 3085 ft 159 kts 91°
2026-05-04 00:29 26.06694 -80.32438 2877 ft 151 kts 91°
2026-05-04 00:29 26.06687 -80.31298 2694 ft 144 kts 91°
2026-05-04 00:29 26.06680 -80.30215 2493 ft 135 kts 90°
2026-05-04 00:29 26.06674 -80.29181 2328 ft 136 kts 90°
2026-05-04 00:30 26.06667 -80.28141 2144 ft 133 kts 90°
2026-05-04 00:30 26.06661 -80.27112 1981 ft 132 kts 90°
2026-05-04 00:30 26.06655 -80.26094 1813 ft 131 kts 89°
2026-05-04 00:30 26.06648 -80.25082 1641 ft 131 kts 89°
2026-05-04 00:31 26.06642 -80.24072 1461 ft 130 kts 89°
2026-05-04 00:31 26.06636 -80.23066 1298 ft 130 kts 89°
2026-05-04 00:31 26.06630 -80.22061 1117 ft 130 kts 88°
2026-05-04 00:31 26.06624 -80.21056 944 ft 130 kts 88°
2026-05-04 00:32 26.06617 -80.20056 785 ft 129 kts 88°
2026-05-04 00:32 26.06611 -80.19061 626 ft 128 kts 88°
2026-05-04 00:32 26.06606 -80.18060 432 ft 130 kts 88°
2026-05-04 00:32 26.06608 -80.17060 255 ft 128 kts 89°
2026-05-04 00:33 26.06599 -80.16062 94 ft 129 kts 89°
2026-05-04 00:33 26.06585 -80.14367 49 ft 65 kts 91°